Weather History for Rotterdam Airport Zestienhoven, Netherlands

Change the Weather History Date:

Monday, July 15, 2013

  Actual Average Record
Temperature  
Mean Temperature 68 °F -  
Max Temperature 77 °F 70 °F - ()
Min Temperature 58 °F 54 °F - ()
Cooling Degree Days 2    
Growing Degree Days 18 (Base 50)    
Moisture  
Dew Point 57 °F    
Average Humidity 71    
Maximum Humidity 100    
Minimum Humidity 33    
Precipitation  
Precipitation 0.00 in - - ()
Sea Level Pressure  
Sea Level Pressure 30.20 in    
Wind  
Wind Speed 4 mph ()    
Max Wind Speed 9 mph    
Max Gust Speed -    
Visibility 7.2 miles    
Events      
T = Trace of Precipitation, MM = Missing Value Source: Averaged Metar Reports

Daily Weather History Graph

Daily Weather History Graph

Search for Another Location

Airport:

Trip Planner

Search our weather history database for the weather conditions in past years. The results will help you decide how hot, cold, wet, or windy it might be!

Date:

Astronomy

Jul. 15, 2013 Rise Set
Actual Time 5:40 AM CEST 9:55 PM CEST
Civil Twilight 4:54 AM CEST 10:40 PM CEST
Nautical Twilight 3:48 AM CEST 11:46 PM CEST
Astronomical Twilight 2:20 AM CEST 1:15 AM CEST
Moon 1:44 PM CEST (7/15) 12:03 AM CEST (7/15)
Length of Visible Light 17h 45m
Length of Day
16h 14m
Waxing Crescent, 42% of the Moon is Illuminated
Jul 15
Waxing Crescent
Jul 16
First Quarter
Jul 22
Full
Jul 29
Last Quarter
Aug 6
New

Hourly Weather History & Observations

Time (CEST) Temp. Dew Point Humidity Pressure Visibility Wind Dir Wind Speed Gust Speed Precip Events Conditions
12:00 AM 63 °F 59 °F 84% 30.22 in 6 mi NNE 2.2 mph - -   Overcast
12:25 AM 60.8 °F 59.0 °F 94% 30.21 in 6.2 mi NW 2.3 mph - N/A   Mostly Cloudy
12:55 AM 60.8 °F 59.0 °F 94% 30.18 in 3.7 mi Variable 2.3 mph - N/A   Scattered Clouds
1:25 AM 59.0 °F 59.0 °F 100% 30.18 in 4.3 mi Calm Calm - N/A   Scattered Clouds
1:55 AM 59.0 °F 57.2 °F 94% 30.18 in 6.2 mi ENE 2.3 mph - N/A   Mostly Cloudy
2:00 AM 60 °F 58 °F 89% 30.20 in 9 mi ENE 2.2 mph - -   Partly Cloudy
2:25 AM 60.8 °F 59.0 °F 94% 30.18 in 6.2 mi Variable 2.3 mph - N/A   Overcast
2:55 AM 62.6 °F 59.0 °F 88% 30.18 in 6.2 mi ESE 4.6 mph - N/A   Overcast
3:00 AM 63 °F 58 °F 78% 30.19 in 14 mi ESE 4.5 mph - -   Overcast
3:25 AM 62.6 °F 57.2 °F 82% 30.18 in 6.2 mi SE 2.3 mph - N/A   Mostly Cloudy
3:55 AM 62.6 °F 57.2 °F 82% 30.18 in 6.2 mi SSE 4.6 mph - N/A   Overcast
4:00 AM 62 °F 58 °F 83% 30.19 in 13 mi South 2.2 mph - -   Overcast
4:25 AM 62.6 °F 57.2 °F 82% 30.18 in 6.2 mi SSW 3.5 mph - N/A   Overcast
4:55 AM 60.8 °F 57.2 °F 88% 30.18 in 6.2 mi West 4.6 mph - N/A   Mostly Cloudy
5:00 AM 60 °F 58 °F 92% 30.19 in 4 mi WNW 4.5 mph - -   Mist
5:25 AM 60.8 °F 59.0 °F 94% 30.18 in 3.1 mi West 4.6 mph - N/A   Overcast
5:55 AM 60.8 °F 59.0 °F 94% 30.18 in - Variable 2.3 mph - N/A   Overcast
6:00 AM 61 °F 59 °F 91% 30.19 in 3 mi WNW 2.2 mph - -   Mist
6:25 AM 59.0 °F 59.0 °F 100% 30.18 in - Variable 1.2 mph - N/A   Mostly Cloudy
6:55 AM 59.0 °F 59.0 °F 100% 30.18 in - Variable 2.3 mph - N/A   Mostly Cloudy
7:00 AM 60 °F 58 °F 93% 30.20 in 3 mi North 4.5 mph - -   Mist
7:25 AM 60.8 °F 59.0 °F 94% 30.18 in 2.8 mi Variable 2.3 mph - N/A   Mostly Cloudy
7:55 AM 62.6 °F 59.0 °F 88% 30.18 in 3.1 mi NNW 3.5 mph - N/A   Mist
8:00 AM 62 °F 59 °F 85% 30.21 in 4 mi NNW 4.5 mph - -   Mist
8:25 AM 62.6 °F 59.0 °F 88% 30.21 in 5.6 mi North 4.6 mph - N/A   Unknown
8:55 AM 64.4 °F 59.0 °F 83% 30.21 in 5.6 mi North 4.6 mph - N/A   Unknown
9:00 AM 65 °F 60 °F 78% 30.22 in 7 mi North 4.5 mph - -   Scattered Clouds
9:25 AM 66.2 °F 59.0 °F 78% 30.21 in 6.2 mi NNW 3.5 mph - N/A   Unknown
9:55 AM 68.0 °F 60.8 °F 78% 30.21 in 6.2 mi NNW 4.6 mph - N/A   Partly Cloudy
10:00 AM 68 °F 60 °F 69% 30.22 in 7 mi NNW 4.5 mph - -  
10:25 AM 68.0 °F 60.8 °F 78% 30.21 in 6.2 mi NNW 3.5 mph - N/A   Unknown
10:55 AM 69.8 °F 59.0 °F 68% 30.21 in 6.2 mi North 5.8 mph - N/A   Partly Cloudy
11:00 AM 69 °F 60 °F 64% 30.22 in 11 mi North 4.5 mph - -   Scattered Clouds
11:25 AM 71.6 °F 59.0 °F 64% 30.21 in 6.2 mi NW 4.6 mph - N/A   Unknown
11:55 AM 71.6 °F 57.2 °F 60% 30.21 in 6.2 mi Variable 4.6 mph - N/A   Unknown
12:00 PM 72 °F 56 °F 47% 30.23 in 11 mi NW 4.5 mph - -  
12:25 PM 73.4 °F 57.2 °F 57% 30.21 in 6.2 mi NW 4.6 mph - N/A   Unknown
12:55 PM 75.2 °F 55.4 °F 50% 30.21 in 6.2 mi NNW 4.6 mph - N/A   Unknown
1:25 PM 75.2 °F 55.4 °F 50% 30.21 in 6.2 mi North 3.5 mph - N/A   Unknown
1:55 PM 75.2 °F 53.6 °F 47% 30.21 in 6.2 mi Variable 4.6 mph - N/A   Unknown
2:00 PM 77 °F 54 °F 33% 30.22 in 19 mi NNW 4.5 mph - -   Partly Cloudy
2:25 PM 77.0 °F 53.6 °F 44% 30.21 in 6.2 mi NNE 6.9 mph - N/A   Unknown
2:55 PM 75.2 °F 55.4 °F 50% 30.21 in 6.2 mi NNW 5.8 mph - N/A   Unknown
3:00 PM 77 °F 55 °F 36% 30.22 in 12 mi NNW 6.7 mph - -  
3:25 PM 77.0 °F 55.4 °F 47% 30.21 in 6.2 mi North 6.9 mph - N/A   Unknown
3:55 PM 77.0 °F 55.4 °F 47% 30.21 in 6.2 mi NNW 5.8 mph - N/A   Scattered Clouds
4:00 PM 76 °F 56 °F 39% 30.22 in 13 mi NNW 8.9 mph - -   Mostly Cloudy
4:25 PM 77.0 °F 57.2 °F 50% 30.21 in 6.2 mi Variable 6.9 mph - N/A   Mostly Cloudy
4:55 PM 75.2 °F 57.2 °F 53% 30.21 in 6.2 mi North 8.1 mph - N/A   Unknown
5:00 PM 76 °F 56 °F 39% 30.22 in 16 mi NNW 4.6 mph - -  
5:25 PM 75.2 °F 57.2 °F 53% 30.21 in 6.2 mi NNW 8.1 mph - N/A   Unknown
5:55 PM 75.2 °F 55.4 °F 50% 30.21 in 6.2 mi North 6.9 mph - N/A   Unknown
6:00 PM 75 °F 56 °F 42% 30.22 in 14 mi North 6.7 mph - -  
6:25 PM 73.4 °F 55.4 °F 53% 30.21 in 6.2 mi North 8.1 mph - N/A   Unknown
6:55 PM 73.4 °F 57.2 °F 57% 30.21 in 6.2 mi North 5.8 mph - N/A   Unknown
7:00 PM 73 °F 56 °F 45% 30.22 in 12 mi North 6.7 mph - -  
7:25 PM 71.6 °F 55.4 °F 57% 30.21 in 6.2 mi North 6.9 mph - N/A   Unknown
7:55 PM 71.6 °F 55.4 °F 57% 30.21 in 6.2 mi NNW 5.8 mph - N/A   Unknown
8:00 PM 71 °F 56 °F 48% 30.22 in 13 mi North 4.5 mph - -   Partly Cloudy
8:25 PM 69.8 °F 55.4 °F 60% 30.21 in 6.2 mi North 5.8 mph - N/A   Unknown
8:55 PM 68.0 °F 57.2 °F 68% 30.21 in 6.2 mi NNW 3.5 mph - N/A   Unknown
9:00 PM 68 °F 57 °F 60% 30.22 in 16 mi North 2.2 mph - -  
9:25 PM 66.2 °F 57.2 °F 73% 30.21 in 6.2 mi North 3.5 mph - N/A   Unknown
9:55 PM 64.4 °F 53.6 °F 68% 30.21 in 6.2 mi North 3.5 mph - N/A   Unknown
10:00 PM 64 °F 54 °F 63% 30.23 in 11 mi NNE 4.5 mph - -  
10:25 PM 62.6 °F 57.2 °F 82% 30.21 in 6.2 mi NNE 3.5 mph - N/A   Unknown
10:55 PM 60.8 °F 57.2 °F 88% 30.21 in 5.6 mi North 3.5 mph - N/A   Unknown
11:00 PM 60 °F 56 °F 83% 30.24 in 5 mi North 2.2 mph - -   Mist
11:25 PM 59.0 °F 57.2 °F 94% 30.21 in 3.7 mi Variable 2.3 mph - N/A   Unknown
11:55 PM 59.0 °F 57.2 °F 94% 30.21 in - North 2.3 mph - N/A   Mist